Wind_Speed
5 5 3 5 5 3 3 4 7 4 6 2 3 4 8 20 18 18 24 29 34 34 32 27 23 20 19 20 18 12 11 7 10 14 17 14 14 19 8 10 8 6 4 4
6 4 8 4 5 6 6 5 5 5 5 3 2 4 5 11 22 30 30 31 34 30 28 27 26 21 20 19 20 10 8 2 2 3 9 14 15 10 6 5 6 6 5 6
5 6 2 3 5 5 3 2 2 5 6 5 5 6 4 4 15 22 25 31 30 30 29 30 28 24 22 19 18 5 3 3 4 6 7 8 7 11 3 3 1 4 7 9
5 6 2 5 6 6 2 3 2 2 4 2 4 4 6 6 6 6 18 25 27 28 29 30 29 26 20 19 15 3 1 7 3 2 4 4 0 3 4 2 4 8 11 12
6 2 7 4 7 6 7 1 3 3 4 3 4 4 7 5 4 4 11 22 27 29 30 30 27 23 19 14 8 5 5 9 7 9 6 3 2 3 4 5 8 13 13 12
6 5 4 6 3 2 4 5 7 4 4 3 6 4 6 3 4 1 5 19 23 29 30 30 26 22 17 12 7 5 10 11 11 10 7 4 1 2 4 7 11 14 13 16
5 3 4 5 3 4 7 7 4 5 5 5 4 2 6 9 7 4 9 18 22 27 32 31 25 21 15 11 9 7 12 12 15 12 10 5 3 4 6 9 12 11 13 9
3 6 5 1 4 6 2 7 6 4 3 4 2 3 5 5 7 0 9 16 19 26 31 33 26 18 15 12 10 10 11 13 14 12 9 8 7 7 8 10 10 9 7 8
4 5 3 2 3 7 2 2 4 7 2 3 4 4 4 5 6 11 13 16 14 17 28 30 22 15 17 14 10 9 12 12 13 10 8 7 7 6 8 7 7 4 5 7
5 2 3 5 5 3 8 7 3 3 2 1 4 4 4 5 6 6 7 16 16 19 26 29 23 17 19 13 10 8 8 9 11 10 9 10 8 6 5 5 3 2 5 8
5 3 6 4 1 7 2 1 7 5 4 5 1 6 7 8 5 6 6 17 21 21 27 30 25 21 17 15 12 10 10 14 15 13 11 10 6 3 2 4 1 4 7 9
8 5 4 10 3 4 2 3 6 5 4 2 4 6 5 8 11 11 12 13 10 5 17 25 26 21 19 17 15 14 12 16 18 12 11 10 6 3 2 2 3 5 7 9
8 1 1 10 7 4 7 3 6 5 4 5 5 5 2 6 7 5 9 13 6 1 12 26 24 20 19 19 18 14 12 2 22 12 10 10 6 3 1 2 3 4 6 7
13 4 7 8 7 4 4 4 5 5 3 3 5 6 6 4 3 9 15 6 2 0 13 26 28 24 21 16 14 6 13 24 15 11 10 9 7 4 2 1 2 3 4 6
5 4 4 3 4 4 3 4 6 5 5 5 4 7 7 7 9 13 9 8 4 3 16 27 31 25 22 19 16 14 22 19 15 15 11 11 9 5 4 2 1 2 3 4
4 2 3 1 1 3 3 3 7 6 3 3 5 5 6 9 11 11 13 11 9 3 9 21 29 24 23 21 16 14 15 14 13 15 12 12 13 10 6 5 4 3 2 2
3 4 3 3 2 4 4 2 4 3 3 1 6 8 5 3 7 13 14 16 16 14 9 18 25 24 25 22 15 11 15 14 11 11 11 12 11 13 11 10 8 6 5 3
3 3 3 2 3 2 4 4 8 11 5 3 0 6 9 6 10 13 14 13 9 10 11 15 24 24 20 17 16 13 18 18 15 13 14 14 16 13 7 13 12 9 7 5
4 4 4 4 2 3 4 4 4 4 0 3 4 3 8 11 8 17 9 12 4 7 7 11 17 20 17 15 22 22 20 19 13 15 13 11 7 18 17 19 16 11 11 7
6 6 5 3 4 3 6 3 16 7 2 9 11 14 19 17 2 3 4 5 7 12 5 3 13 15 16 18 26 23 19 16 13 18 16 19 25 15 20 21 18 13 11 9
4 3 4 3 2 6 6 4 2 4 7 24 25 24 18 6 13 3 10 3 7 12 5 4 7 13 14 16 22 26 28 24 15 15 23 24 24 20 21 23 21 11 10 9
3 4 3 3 4 5 2 4 6 6 4 30 36 32 25 22 18 9 4 4 4 5 3 1 4 9 9 13 23 27 28 28 30 19 20 26 25 24 22 24 21 15 13 9
1 4 3 6 5 5 7 5 1 3 6 19 27 16 18 17 13 12 6 2 2 2 2 2 1 2 4 4 9 19 27 31 30 25 17 19 19 17 19 22 18 16 14 11
3 4 2 2 0 5 6 10 8 5 3 5 7 9 10 13 11 5 1 1 1 2 3 3 2 2 1 4 5 6 11 18 21 18 16 13 12 11 13 18 17 14 11 14
2 4 1 2 4 6 5 13 12 9 3 1 3 4 4 1 1 3 4 5 5 5 6 7 7 4 3 3 4 4 6 9 11 13 12 12 13 13 15 15 16 11 15 12
2 2 2 3 3 3 2 6 9 9 10 8 4 4 8 8 9 11 11 9 8 6 5 6 9 6 3 3 3 3 5 8 8 11 13 12 12 12 12 13 13 13 12 10
Wind_Direction
16 43 233 225 211 214 266 233 244 265 351 89 196 268 191 184 194 192 203 204 211 216 218 213 216 209 221 228 224 228 305 340 257 265 235 218 265 236 223 216 235 261 232 299
17 253 240 232 233 239 219 241 330 301 342 38 47 326 94 163 212 204 200 205 211 213 213 203 212 217 226 231 213 247 321 352 145 319 240 178 198 209 162 215 253 270 290 301
168 238 20 195 291 282 220 171 274 240 341 30 22 342 331 214 241 218 209 206 208 207 198 199 209 216 232 224 211 256 330 159 189 164 162 165 163 149 142 153 181 306 311 296
222 271 274 280 244 166 293 189 196 37 73 219 39 267 303 327 323 151 172 191 198 194 197 200 205 211 230 219 204 177 76 162 183 220 163 120 78 47 58 7 351 321 310 302
244 313 4 313 225 159 218 142 59 115 97 61 322 71 268 357 331 194 165 181 192 185 191 195 201 202 195 201 206 157 162 161 151 164 155 198 260 328 328 326 320 313 311 307
240 262 231 221 256 175 119 78 43 53 74 29 276 115 291 278 323 142 158 188 185 186 187 187 187 189 199 196 193 162 165 165 170 185 206 229 281 294 288 308 306 303 307 311
321 266 273 214 216 29 71 58 358 2 15 214 284 23 244 308 326 258 181 184 192 187 190 189 191 191 201 210 188 176 172 182 182 188 204 216 228 255 283 296 308 311 311 326
128 319 192 37 170 181 101 142 148 191 192 264 286 265 301 293 309 245 202 192 191 183 191 190 196 198 210 203 192 181 182 175 181 192 205 204 229 265 281 301 311 312 338 356
155 272 305 257 170 137 188 108 182 102 30 52 284 311 300 333 36 88 121 163 150 183 186 186 194 197 215 207 197 199 185 181 185 191 208 206 213 252 283 296 311 327 351 4
194 290 231 288 78 70 158 156 77 16 147 244 305 287 230 303 331 339 118 132 145 186 184 191 203 200 213 210 204 197 204 205 194 189 198 211 218 241 264 304 312 23 33 14
133 117 280 21 276 174 87 122 50 113 115 158 168 274 199 242 279 297 252 179 159 185 190 196 193 196 210 207 195 192 194 188 205 194 197 201 202 220 280 330 134 63 43 39
196 149 237 238 287 282 142 143 133 122 233 117 146 268 211 226 232 250 292 51 110 190 207 196 186 190 194 200 195 190 196 219 193 193 188 189 197 215 289 328 93 76 56 51
172 201 323 331 352 1 75 87 94 96 79 188 135 260 260 267 323 307 85 83 85 255 197 195 190 190 189 195 200 197 221 334 171 204 200 196 201 225 271 56 87 79 63 54
145 124 158 208 207 174 124 65 106 113 107 185 224 280 275 9 345 250 208 165 156 94 186 191 191 189 185 185 189 176 150 165 175 190 210 221 213 229 225 91 92 72 68 56
108 130 148 151 169 166 149 118 155 178 185 154 249 211 276 203 221 239 275 341 333 38 188 195 189 193 184 176 157 154 149 172 192 194 200 225 229 219 231 269 198 132 86 58
352 131 104 86 126 143 130 123 103 75 130 90 141 252 237 229 230 276 281 302 296 287 207 203 194 200 186 180 163 163 174 181 193 204 198 216 238 221 218 238 224 182 133 92
54 114 90 196 278 111 25 45 95 115 77 157 177 232 167 203 243 256 276 296 312 295 221 206 211 210 199 190 186 183 183 190 200 211 208 224 248 243 211 221 223 204 184 157
111 82 87 151 22 78 245 326 125 109 44 15 69 154 180 185 221 255 254 262 325 294 239 232 214 211 206 198 205 203 185 192 196 204 223 238 261 256 241 261 225 212 204 193
72 107 69 117 99 280 107 235 184 140 2 300 187 134 178 192 255 271 194 147 102 330 290 245 203 211 182 212 224 207 190 195 198 212 220 227 267 231 246 244 229 211 198 199
52 71 105 82 104 167 245 291 134 107 319 216 204 192 188 187 206 256 14 170 25 358 344 196 206 216 218 211 200 198 200 187 223 259 237 233 234 252 255 248 226 200 197 198
32 11 135 121 132 283 243 226 110 82 240 191 200 207 195 194 228 321 354 356 331 345 355 198 207 236 232 215 200 198 196 202 225 259 234 232 237 238 252 259 220 199 190 206
163 142 185 99 108 251 30 155 180 214 208 195 199 204 210 241 256 273 343 17 349 356 347 269 212 215 212 200 196 203 212 225 229 246 240 240 250 249 243 242 208 211 191 203
7 156 208 172 213 302 331 295 316 166 284 213 217 221 234 278 266 284 310 357 25 76 138 155 275 294 273 239 200 217 225 216 223 241 252 251 255 254 246 219 201 190 218 208
7 12 84 89 315 1 34 73 75 52 358 268 273 265 256 259 272 266 306 41 55 6 11 17 8 14 235 199 215 202 221 233 240 249 250 245 226 213 199 199 198 203 215 211
241 353 55 345 306 323 75 60 59 76 100 296 39 56 80 75 354 349 345 337 352 359 345 342 340 328 256 231 226 219 223 227 226 228 221 206 201 196 192 196 197 221 205 212
334 194 121 219 275 230 153 81 90 91 96 99 110 106 84 64 35 3 337 323 322 326 334 345 333 311 280 262 246 225 199 192 203 203 188 189 187 183 186 196 200 198 204 209
Height
1502 1511 1518 1511 1511 1510 1511 1516 1519 1498 1488 1489 1495 1495 1495 1496 1500 1503 1505 1506 1506 1509 1515 1521 1521 1523 1523 1524 1529 1533 1532 1531 1530 1528 1529 1531 1533 1538 1539 1539 1540 1541 1541 1541
1511 1519 1505 1505 1506 1509 1512 1512 1510 1498 1490 1491 1495 1498 1497 1499 1496 1493 1496 1501 1504 1509 1515 1521 1521 1522 1523 1524 1528 1531 1531 1531 1532 1531 1527 1528 1532 1536 1538 1539 1539 1539 1539 1539
1516 1505 1499 1502 1503 1508 1504 1507 1507 1510 1498 1497 1500 1510 1504 1495 1492 1493 1495 1498 1504 1508 1514 1517 1519 1521 1522 1525 1528 1530 1531 1532 1533 1535 1533 1534 1535 1537 1537 1537 1537 1537 1538 1537
1508 1498 1499 1501 1505 1503 1510 1499 1498 1503 1513 1528 1510 1544 1510 1499 1493 1489 1493 1497 1501 1507 1512 1516 1517 1521 1520 1524 1525 1529 1530 1532 1533 1533 1535 1536 1538 1537 1536 1536 1536 1537 1537 1536
1506 1499 1500 1502 1498 1494 1505 1496 1500 1504 1517 1520 1519 1536 1516 1500 1498 1493 1492 1496 1499 1505 1509 1514 1515 1518 1521 1524 1525 1527 1528 1530 1532 1533 1535 1536 1536 1536 1536 1536 1537 1537 1536 1534
1498 1494 1494 1493 1488 1490 1493 1499 1511 1519 1528 1548 1532 1530 1528 1511 1501 1495 1494 1495 1501 1505 1510 1514 1516 1517 1517 1520 1523 1525 1527 1529 1531 1533 1534 1536 1537 1537 1538 1537 1538 1537 1536 1533
1500 1494 1489 1488 1494 1493 1498 1520 1555 1549 1559 1555 1528 1531 1524 1506 1497 1494 1493 1496 1499 1505 1510 1514 1517 1519 1519 1521 1521 1524 1525 1527 1529 1531 1533 1535 1536 1537 1537 1537 1537 1536 1535 1532
1516 1522 1491 1484 1491 1500 1503 1515 1552 1556 1564 1550 1529 1533 1524 1504 1497 1491 1494 1497 1500 1504 1507 1512 1516 1521 1524 1522 1521 1521 1524 1527 1529 1532 1534 1535 1536 1537 1538 1537 1537 1536 1534 1531
1517 1512 1487 1484 1486 1490 1504 1517 1511 1542 1548 1553 1544 1522 1511 1504 1501 1496 1495 1496 1502 1506 1509 1513 1519 1515 1523 1523 1522 1521 1523 1527 1529 1531 1535 1535 1536 1538 1539 1538 1536 1535 1533 1531
1497 1514 1490 1483 1482 1488 1493 1499 1525 1539 1548 1551 1548 1537 1533 1511 1505 1500 1498 1498 1500 1502 1508 1511 1514 1517 1522 1523 1523 1525 1525 1528 1528 1527 1533 1536 1537 1538 1538 1538 1536 1535 1532 1532
1493 1504 1500 1488 1492 1496 1501 1509 1522 1528 1541 1557 1562 1546 1516 1513 1506 1503 1499 1495 1496 1499 1502 1505 1510 1516 1520 1523 1523 1525 1526 1526 1530 1529 1531 1534 1537 1538 1538 1537 1536 1535 1533 1532
1487 1504 1516 1505 1487 1486 1486 1497 1511 1537 1537 1548 1550 1538 1503 1505 1505 1504 1510 1509 1506 1507 1510 1510 1509 1516 1519 1523 1526 1524 1527 1523 1522 1533 1532 1534 1538 1538 1538 1538 1536 1536 1534 1533
1484 1505 1523 1515 1501 1489 1495 1496 1510 1520 1528 1542 1546 1536 1499 1500 1505 1507 1509 1509 1507 1507 1507 1511 1513 1514 1518 1522 1525 1523 1524 1525 1526 1534 1535 1536 1540 1540 1540 1539 1538 1538 1536 1535
1473 1500 1506 1519 1510 1498 1499 1497 1502 1514 1532 1532 1532 1516 1503 1504 1505 1503 1503 1506 1506 1503 1504 1507 1510 1510 1515 1520 1522 1521 1522 1527 1531 1535 1538 1539 1541 1541 1540 1539 1539 1540 1539 1539
1477 1497 1494 1493 1489 1492 1492 1496 1500 1507 1510 1517 1510 1515 1505 1501 1498 1496 1497 1500 1503 1503 1501 1502 1507 1513 1513 1516 1518 1520 1521 1526 1531 1533 1536 1539 1540 1541 1542 1542 1541 1541 1541 1541
1479 1496 1490 1497 1491 1489 1494 1491 1493 1500 1504 1504 1511 1510 1499 1497 1499 1499 1497 1501 1505 1504 1504 1507 1507 1510 1516 1518 1519 1522 1524 1526 1528 1532 1532 1536 1541 1541 1541 1543 1543 1542 1542 1542
1486 1495 1504 1506 1496 1494 1509 1495 1498 1500 1502 1505 1514 1497 1497 1498 1500 1497 1496 1500 1504 1505 1505 1505 1509 1514 1516 1518 1520 1521 1522 1527 1530 1533 1537 1537 1540 1541 1542 1543 1543 1543 1542 1543
1488 1495 1506 1513 1503 1523 1503 1493 1490 1500 1504 1501 1499 1496 1496 1498 1499 1498 1499 1501 1504 1503 1506 1505 1506 1514 1518 1522 1525 1524 1524 1526 1529 1533 1539 1537 1539 1539 1540 1542 1542 1543 1543 1543
1484 1497 1515 1518 1525 1513 1500 1499 1496 1495 1507 1503 1500 1500 1500 1502 1503 1497 1497 1500 1497 1504 1504 1504 1504 1510 1516 1517 1522 1524 1524 1526 1528 1530 1534 1535 1538 1537 1538 1538 1539 1541 1539 1540
1488 1493 1504 1519 1520 1524 1504 1489 1487 1488 1517 1501 1501 1499 1498 1501 1505 1494 1503 1505 1497 1500 1503 1504 1508 1510 1512 1514 1519 1523 1525 1526 1527 1526 1527 1531 1535 1538 1537 1538 1536 1538 1539 1539
1507 1510 1512 1522 1523 1515 1493 1490 1492 1513 1515 1494 1498 1496 1498 1498 1495 1498 1497 1496 1495 1496 1501 1506 1508 1512 1512 1513 1514 1520 1521 1519 1520 1521 1524 1527 1528 1532 1533 1534 1534 1536 1537 1539
1504 1513 1517 1524 1524 1520 1488 1491 1501 1494 1488 1487 1489 1490 1493 1494 1494 1496 1500 1500 1501 1503 1506 1508 1508 1509 1510 1511 1513 1516 1519 1518 1518 1520 1522 1523 1523 1526 1528 1530 1532 1535 1536 1538
1506 1503 1510 1509 1508 1494 1493 1492 1489 1488 1488 1488 1491 1495 1498 1500 1501 1502 1503 1504 1507 1512 1512 1512 1511 1507 1508 1510 1514 1518 1516 1516 1516 1519 1520 1520 1520 1523 1523 1526 1531 1533 1536 1537
1498 1497 1502 1503 1499 1498 1495 1493 1492 1491 1492 1492 1494 1495 1498 1500 1501 1504 1505 1507 1509 1511 1513 1514 1511 1507 1510 1512 1513 1512 1514 1516 1517 1518 1518 1519 1522 1522 1524 1527 1530 1532 1534 1537
1501 1499 1503 1504 1499 1500 1499 1496 1495 1494 1494 1495 1495 1496 1498 1500 1501 1503 1506 1507 1508 1509 1511 1511 1510 1509 1510 1510 1510 1510 1512 1514 1516 1518 1518 1521 1522 1522 1524 1527 1529 1533 1533 1536
1500 1500 1504 1506 1499 1500 1499 1498 1497 1497 1497 1497 1498 1499 1500 1501 1503 1504 1506 1507 1508 1511 1513 1513 1512 1511 1510 1510 1510 1510 1511 1514 1517 1520 1520 1521 1522 1523 1525 1528 1530 1532 1534 1535